Weather History for Sheldon, IA

Change the Weather History Date:

Tuesday, January 28, 2014

  Actual Average Record
Temperature  
Mean Temperature 0 °F -  
Max Temperature 10 °F 24 °F 42 °F (2006)
Min Temperature -11 °F 5 °F -21 °F (1972)
Degree Days  
Heating Degree Days 66    
Moisture  
Dew Point -12 °F    
Average Humidity 60    
Maximum Humidity 71    
Minimum Humidity 40    
Precipitation  
Precipitation 0.00 in - - ()
Sea Level Pressure  
Sea Level Pressure 30.28 in    
Wind  
Wind Speed 8 mph (West)    
Max Wind Speed 18 mph    
Max Gust Speed 25 mph    
Visibility 10 miles    
Events      
Averages and records for this station are not official NWS values.
T = Trace of Precipitation, MM = Missing Value Source: NWS Daily Summary

Daily Weather History Graph

Daily Weather History Graph

Search for Another Location

Airport:

Trip Planner

Search our weather history database for the weather conditions in past years. The results will help you decide how hot, cold, wet, or windy it might be!

Date:

Astronomy

Jan. 28, 2014 Rise Set
Actual Time 7:42 AM CST 5:30 PM CST
Civil Twilight 7:12 AM CST 6:00 PM CST
Nautical Twilight 6:37 AM CST 6:35 PM CST
Astronomical Twilight 6:04 AM CST 7:08 PM CST
Moon 5:26 AM CST (1/28) 3:20 PM CST (1/28)
Length of Visible Light 10h 48m
Length of Day
9h 47m
Waning Crescent, 7% of the Moon is Illuminated
Jan 28
Waning Crescent
Jan 30
New
Feb 6
First Quarter
Feb 14
Full
Feb 22
Last Quarter

Hourly Weather History & Observations

Time (CST) Temp. Windchill Dew Point Humidity Pressure Visibility Wind Dir Wind Speed Gust Speed Precip Events Conditions
12:15 AM -9.4 °F -18.6 °F -16.6 °F 71% 30.37 in 10.0 mi WSW 3.5 mph - N/A   Clear
12:35 AM -11.2 °F -23.0 °F -18.4 °F 70% 30.37 in 10.0 mi WSW 4.6 mph - N/A   Clear
12:55 AM -9.4 °F -22.7 °F -16.6 °F 71% 30.37 in 10.0 mi WSW 5.8 mph - N/A   Clear
1:15 AM -9.4 °F -22.7 °F -16.6 °F 71% 30.37 in 10.0 mi WSW 5.8 mph - N/A   Clear
1:35 AM -9.4 °F -22.7 °F -16.6 °F 71% 30.37 in 10.0 mi SW 5.8 mph - N/A   Clear
1:55 AM -9.4 °F -20.9 °F -16.6 °F 71% 30.37 in 10.0 mi WSW 4.6 mph - N/A   Clear
2:15 AM -9.4 °F -20.9 °F -16.6 °F 71% 30.37 in 10.0 mi West 4.6 mph - N/A   Clear
2:35 AM -9.4 °F -22.7 °F -16.6 °F 71% 30.37 in 10.0 mi WSW 5.8 mph - N/A   Clear
2:55 AM -9.4 °F -24.3 °F -16.6 °F 71% 30.38 in 10.0 mi WSW 6.9 mph - N/A   Clear
3:15 AM -9.4 °F -25.6 °F -16.6 °F 71% 30.38 in 10.0 mi WSW 8.1 mph - N/A   Clear
3:35 AM -9.4 °F -25.6 °F -16.6 °F 71% 30.37 in 10.0 mi WSW 8.1 mph - N/A   Clear
3:55 AM -9.4 °F -25.6 °F -16.6 °F 71% 30.37 in 10.0 mi WSW 8.1 mph - N/A   Partly Cloudy
4:15 AM -7.6 °F -22.1 °F -14.8 °F 71% 30.37 in 10.0 mi WSW 6.9 mph - N/A   Partly Cloudy
4:35 AM -9.4 °F -24.3 °F -16.6 °F 71% 30.37 in 10.0 mi WSW 6.9 mph - N/A   Clear
4:55 AM -7.6 °F -23.4 °F -16.6 °F 65% 30.36 in 10.0 mi WSW 8.1 mph - N/A   Clear
5:15 AM -9.4 °F -22.7 °F -16.6 °F 71% 30.36 in 10.0 mi SW 5.8 mph - N/A   Clear
5:35 AM -9.4 °F -22.7 °F -16.6 °F 71% 30.36 in 10.0 mi WSW 5.8 mph - N/A   Clear
5:55 AM -9.4 °F -24.3 °F -16.6 °F 71% 30.35 in 10.0 mi WSW 6.9 mph - N/A   Clear
6:15 AM -9.4 °F -22.7 °F -16.6 °F 71% 30.35 in 10.0 mi West 5.8 mph - N/A   Clear
6:35 AM -7.6 °F -23.4 °F -14.8 °F 71% 30.34 in 10.0 mi West 8.1 mph - N/A   Clear
6:55 AM -5.8 °F -19.9 °F -14.8 °F 65% 30.34 in 10.0 mi West 6.9 mph - N/A   Clear
7:15 AM -5.8 °F -19.9 °F -14.8 °F 65% 30.34 in 10.0 mi West 6.9 mph - N/A   Clear
7:35 AM -7.6 °F -23.4 °F -14.8 °F 71% 30.34 in 10.0 mi West 8.1 mph - N/A   Clear
7:55 AM -7.6 °F -23.4 °F -14.8 °F 71% 30.34 in 10.0 mi West 8.1 mph - N/A   Clear
8:15 AM -5.8 °F -21.2 °F -13.0 °F 71% 30.34 in 10.0 mi West 8.1 mph - N/A   Clear
8:35 AM -4.0 °F -17.8 °F -13.0 °F 65% 30.34 in 10.0 mi West 6.9 mph - N/A   Clear
8:55 AM -2.2 °F -18.0 °F -11.2 °F 66% 30.34 in 10.0 mi WNW 9.2 mph - N/A   Clear
9:15 AM -0.4 °F -17.6 °F -11.2 °F 60% 30.34 in 10.0 mi WNW 11.5 mph - N/A   Clear
9:35 AM -0.4 °F -18.4 °F -9.4 °F 66% 30.34 in 10.0 mi NW 12.7 mph - N/A   Clear
9:55 AM 1.4 °F -15.3 °F -9.4 °F 61% 30.33 in 10.0 mi WNW 11.5 mph 18.4 mph N/A   Clear
10:15 AM 1.4 °F -17.6 °F -11.2 °F 56% 30.33 in 10.0 mi NW 15.0 mph - N/A   Clear
10:35 AM 3.2 °F -15.9 °F -9.4 °F 56% 30.33 in 10.0 mi NW 16.1 mph - N/A   Clear
10:55 AM 3.2 °F -15.3 °F -9.4 °F 56% 30.33 in 10.0 mi WNW 15.0 mph 21.9 mph N/A   Clear
11:15 AM 3.2 °F -15.9 °F -9.4 °F 56% 30.32 in 10.0 mi WNW 16.1 mph - N/A   Clear
11:35 AM 3.2 °F -13.9 °F -9.4 °F 56% 30.31 in 10.0 mi WNW 12.7 mph 18.4 mph N/A   Clear
11:55 AM 6.8 °F -11.3 °F -9.4 °F 48% 30.31 in 10.0 mi WNW 16.1 mph 21.9 mph N/A   Clear
12:15 PM 6.8 °F -11.8 °F -9.4 °F 48% 30.30 in 10.0 mi WNW 17.3 mph 23.0 mph N/A   Clear
12:35 PM 6.8 °F -10.7 °F -9.4 °F 48% 30.29 in 10.0 mi WNW 15.0 mph 21.9 mph N/A   Clear
12:55 PM 6.8 °F -11.3 °F -9.4 °F 48% 30.28 in 10.0 mi West 16.1 mph - N/A   Clear
1:15 PM 6.8 °F -11.3 °F -11.2 °F 44% 30.27 in 10.0 mi WNW 16.1 mph 23.0 mph N/A   Clear
1:35 PM 8.6 °F -8.3 °F -9.4 °F 44% 30.26 in 10.0 mi West 15.0 mph 21.9 mph N/A   Clear
1:55 PM 8.6 °F -7.0 °F -9.4 °F 44% 30.25 in 10.0 mi WNW 12.7 mph 23.0 mph N/A   Clear
2:15 PM 8.6 °F -8.9 °F -11.2 °F 40% 30.24 in 10.0 mi West 16.1 mph 23.0 mph N/A   Clear
2:35 PM 8.6 °F -7.0 °F -9.4 °F 44% 30.24 in 10.0 mi WNW 12.7 mph 24.2 mph N/A   Clear
2:55 PM 8.6 °F -10.0 °F -9.4 °F 44% 30.23 in 10.0 mi West 18.4 mph 25.3 mph N/A   Clear
3:15 PM 8.6 °F -8.3 °F -9.4 °F 44% 30.23 in 10.0 mi WNW 15.0 mph 21.9 mph N/A   Clear
3:35 PM 10.4 °F -5.4 °F -9.4 °F 41% 30.22 in 10.0 mi WNW 13.8 mph 19.6 mph N/A   Clear
3:55 PM 10.4 °F -6.0 °F -9.4 °F 41% 30.22 in 10.0 mi WNW 15.0 mph - N/A   Clear
4:15 PM 10.4 °F -6.0 °F -9.4 °F 41% 30.22 in 10.0 mi West 15.0 mph - N/A   Clear
4:35 PM 8.6 °F -8.9 °F -9.4 °F 44% 30.22 in 10.0 mi West 16.1 mph - N/A   Clear
4:55 PM 8.6 °F -7.7 °F -9.4 °F 44% 30.22 in 10.0 mi WNW 13.8 mph 20.7 mph N/A   Clear
5:15 PM 8.6 °F -6.3 °F -9.4 °F 44% 30.22 in 10.0 mi WNW 11.5 mph 17.3 mph N/A   Clear
5:35 PM 6.8 °F -5.9 °F -9.4 °F 48% 30.22 in 10.0 mi WNW 8.1 mph 13.8 mph N/A   Clear
5:55 PM 5.0 °F -6.9 °F -9.4 °F 52% 30.21 in 10.0 mi WNW 6.9 mph - N/A   Clear
6:15 PM 5.0 °F -6.9 °F -9.4 °F 52% 30.20 in 10.0 mi WNW 6.9 mph - N/A   Clear
6:35 PM 3.2 °F -7.8 °F -9.4 °F 56% 30.19 in 10.0 mi West 5.8 mph - N/A   Clear
6:55 PM 1.4 °F -8.3 °F -11.2 °F 56% 30.19 in 10.0 mi West 4.6 mph - N/A   Clear
7:15 PM 1.4 °F -8.3 °F -11.2 °F 56% 30.18 in 10.0 mi WSW 4.6 mph - N/A   Clear
7:35 PM -0.4 °F -12.0 °F -11.2 °F 60% 30.18 in 10.0 mi West 5.8 mph - N/A   Clear
7:55 PM -0.4 °F -10.4 °F -11.2 °F 60% 30.17 in 10.0 mi WSW 4.6 mph - N/A   Clear
8:15 PM -0.4 °F -12.0 °F -11.2 °F 60% 30.16 in 10.0 mi WSW 5.8 mph - N/A   Clear
8:35 PM -0.4 °F -12.0 °F -11.2 °F 60% 30.17 in 10.0 mi SW 5.8 mph - N/A   Clear
8:55 PM 1.4 °F -9.9 °F -9.4 °F 61% 30.16 in 10.0 mi SW 5.8 mph - N/A   Clear
9:15 PM -2.2 °F -15.6 °F -11.2 °F 66% 30.16 in 10.0 mi SW 6.9 mph - N/A   Clear
9:35 PM -2.2 °F -14.2 °F -11.2 °F 66% 30.15 in 10.0 mi SW 5.8 mph - N/A   Clear
9:55 PM -2.2 °F -14.2 °F -11.2 °F 66% 30.15 in 10.0 mi SSW 5.8 mph - N/A   Clear
10:15 PM -2.2 °F -14.2 °F -11.2 °F 66% 30.14 in 10.0 mi SW 5.8 mph - N/A   Clear
10:35 PM -2.2 °F -14.2 °F -11.2 °F 66% 30.14 in 10.0 mi SW 5.8 mph - N/A   Clear
10:55 PM -2.2 °F -12.5 °F -11.2 °F 66% 30.13 in 10.0 mi SSW 4.6 mph - N/A   Clear
11:15 PM -2.2 °F -12.5 °F -11.2 °F 66% 30.13 in 10.0 mi SW 4.6 mph - N/A   Clear
11:35 PM -2.2 °F -12.5 °F -11.2 °F 66% 30.13 in 10.0 mi SW 4.6 mph - N/A   Clear
11:55 PM -2.2 °F -12.5 °F -11.2 °F 66% 30.12 in 10.0 mi SSW 4.6 mph - N/A   Clear